Weather History for Boscobel, WI

Change the Weather History Date:

Thursday, February 28, 2013

  Actual Average (KPDC) Record (KPDC)
Temperature  
Mean Temperature 32 °F -  
Max Temperature 35 °F 38 °F 57 °F (1983)
Min Temperature 30 °F 20 °F -12 °F (1962)
Degree Days  
Heating Degree Days 32    
Moisture  
Dew Point 25 °F    
Average Humidity 70    
Maximum Humidity 78    
Minimum Humidity 56    
Precipitation  
Precipitation 0.00 in - - ()
Sea Level Pressure  
Sea Level Pressure 30.03 in    
Wind  
Wind Speed 8 mph (North)    
Max Wind Speed 14 mph    
Max Gust Speed 17 mph    
Visibility 10 miles    
Events Snow    
Averages and records for this station are not official NWS values.
T = Trace of Precipitation, MM = Missing Value Source: NWS Daily Summary

Daily Weather History Graph

Daily Weather History Graph

Search for Another Location

Airport:

Trip Planner

Search our weather history database for the weather conditions in past years. The results will help you decide how hot, cold, wet, or windy it might be!

Date:

Astronomy

Feb. 28, 2013 Rise Set
Actual Time 6:40 AM CST 5:50 PM CST
Civil Twilight 6:11 AM CST 6:19 PM CST
Nautical Twilight 5:38 AM CST 6:52 PM CST
Astronomical Twilight 5:05 AM CST 7:25 PM CST
Moon 9:25 PM CST (2/28) 7:43 AM CST (2/28)
Length of Visible Light 12h 08m
Length of Day
11h 10m
Waning Gibbous, 90% of the Moon is Illuminated
Feb 28
Waning Gibbous
Mar 4
Last Quarter
Mar 11
New
Mar 19
First Quarter
Mar 27
Full

Hourly Weather History & Observations

Time (CST) Temp. Windchill Dew Point Humidity Pressure Visibility Wind Dir Wind Speed Gust Speed Precip Events Conditions
12:53 AM 34.0 °F 26.6 °F 27.0 °F 75% 29.90 in 10.0 mi North 9.2 mph 16.1 mph N/A   Overcast
1:12 AM 33.8 °F 26.4 °F 26.6 °F 75% 29.87 in 10.0 mi North 9.2 mph - N/A   Overcast
1:25 AM 33.8 °F 27.0 °F 26.6 °F 75% 29.87 in 10.0 mi North 8.1 mph - N/A   Overcast
1:53 AM 34.0 °F 27.2 °F 27.0 °F 75% 29.90 in 10.0 mi North 8.1 mph - N/A   Overcast
2:53 AM 34.0 °F 27.2 °F 27.0 °F 75% 29.91 in 10.0 mi North 8.1 mph - N/A   Overcast
3:53 AM 33.1 °F 26.9 °F 27.0 °F 78% 29.93 in 10.0 mi North 6.9 mph - N/A   Overcast
4:53 AM 33.1 °F 24.9 °F 26.1 °F 75% 29.96 in 10.0 mi North 10.4 mph - N/A   Overcast
5:30 AM 33.8 °F 27.0 °F 26.6 °F 75% 29.94 in 10.0 mi North 8.1 mph - N/A   Overcast
6:04 AM 33.8 °F 29.6 °F 26.6 °F 75% 29.96 in 10.0 mi North 4.6 mph - N/A   Overcast
6:53 AM 33.1 °F 28.7 °F 25.0 °F 72% 30.00 in 10.0 mi North 4.6 mph - N/A   Overcast
7:53 AM 33.1 °F 26.1 °F 26.1 °F 75% 30.02 in 10.0 mi North 8.1 mph - N/A   Overcast
8:12 AM 33.8 °F 25.8 °F 26.6 °F 75% 30.00 in 10.0 mi North 10.4 mph 17.3 mph N/A   Overcast
8:22 AM 33.8 °F 27.7 °F 26.6 °F 75% 30.00 in 10.0 mi North 6.9 mph - N/A   Overcast
8:53 AM 34.0 °F 28.8 °F 26.1 °F 73% 30.03 in 10.0 mi North 5.8 mph - N/A   Overcast
9:53 AM 34.0 °F 27.2 °F 26.1 °F 73% 30.05 in 7.0 mi North 8.1 mph 17.3 mph 0.00 in Snow Light Snow
10:53 AM 34.0 °F 26.6 °F 25.0 °F 70% 30.06 in 10.0 mi North 9.2 mph - 0.00 in   Overcast
11:53 AM 35.1 °F 29.3 °F 25.0 °F 67% 30.07 in 10.0 mi North 6.9 mph - N/A   Overcast
12:53 PM 35.1 °F 25.9 °F 24.1 °F 64% 30.06 in 10.0 mi North 13.8 mph 17.3 mph N/A   Overcast
1:53 PM 35.1 °F 26.9 °F 24.1 °F 64% 30.06 in 10.0 mi North 11.5 mph 16.1 mph N/A   Overcast
3:53 PM 34.0 °F 28.8 °F 23.0 °F 64% 30.09 in 10.0 mi North 5.8 mph - N/A   Overcast
4:53 PM 33.1 °F 25.5 °F 23.0 °F 66% 30.10 in 10.0 mi North 9.2 mph - N/A   Overcast
5:43 PM 33.8 °F 28.6 °F 23.0 °F 65% 30.09 in 10.0 mi NNW 5.8 mph - N/A   Overcast
5:53 PM 33.1 °F 27.7 °F 23.0 °F 66% 30.12 in 10.0 mi North 5.8 mph - N/A   Overcast
6:53 PM 32.0 °F 28.7 °F 23.0 °F 69% 30.13 in 10.0 mi NNW 3.5 mph - N/A   Overcast
7:53 PM 32.0 °F - 21.9 °F 66% 30.14 in 10.0 mi Calm Calm - N/A   Overcast
8:53 PM 32.0 °F 26.4 °F 21.9 °F 66% 30.14 in 10.0 mi NNE 5.8 mph - N/A   Overcast
9:53 PM 32.0 °F 27.5 °F 18.0 °F 56% 30.15 in 10.0 mi NNE 4.6 mph - N/A   Overcast
10:53 PM 30.9 °F 26.2 °F 19.9 °F 64% 30.16 in 10.0 mi Variable 4.6 mph - N/A   Overcast
11:53 PM 30.0 °F 24.1 °F 19.9 °F 66% 30.16 in 10.0 mi NNE 5.8 mph - N/A   Overcast